Regional Weather Roundup
Issued by NWS

Home | Current Version | Previous Version | Text Only | Print | Product List | Glossary On
Versions: 1 2 3 4 5 6 7 8 9 10 11 12 13 14 15 16 17 18 19 20 21 22 23 24 25 26 27 28 29 30 31 32 33 34 35 36 37 38 39 40 41 42 43 44 45 46 47 48 49 50
000
ASUS43 KDMX 271007
RWRIA

WEATHER ROUNDUP FOR IOWA
NATIONAL WEATHER SERVICE DES MOINES IA
500 AM CDT WED MAY 27 2015

NOTE: "FAIR" INDICATES FEW OR NO CLOUDS BELOW 12,000 FEET WITH NO
SIGNIFICANT WEATHER AND/OR OBSTRUCTIONS TO VISIBILITY.

* - THESE STATIONS ARE NOT NWS STATIONS...THUS NOT UNDER NWS
QUALITY CONTROL.  THEY ALSO DO NOT REPORT WEATHER SUCH
AS PRECIPITATION OR FOG.

IAZ001>003-012>014-020>022-031>034-043>046-271100-
   NORTHWEST IOWA

CITY           SKY/WX    TMP DP  RH WIND       PRES   REMARKS
CARROLL *      MOCLDY    55  54  94 W9        29.96R
CHEROKEE *     CLEAR     50  50 100 CALM      29.95R FOG
DENISON *      PTCLDY    54  54 100 SW5       29.96R
LE MARS *      CLEAR     52  52 100 S3        29.97R
ORANGE CITY *  CLEAR     50  48  93 W6        29.96R
SHELDON *      CLEAR     52  52 100 CALM      29.94R FOG
SIOUX CITY     CLEAR     54  49  83 CALM      29.96R
SPENCER        PTCLDY    53  51  93 CALM      29.93R FOG
STORM LAKE *   CLEAR     55  54  94 W10       29.96R
$$

IAZ055>058-069>071-079>083-090>094-271100-
   SOUTHWEST IOWA

CITY           SKY/WX    TMP DP  RH WIND       PRES   REMARKS
ATLANTIC *     CLEAR     54  54 100 CALM      29.98R
AUDUBON *      CLEAR     55  52  88 W3        29.98S
COUNCIL BLFS * CLEAR     55  55 100 SW6       30.00R
CRESTON *      PTCLDY    54  54 100 SW3       29.98R
HARLAN  *      CLEAR     54  54 100 CALM      30.01R
LAMONI         CLEAR     59  55  87 W9        29.97R
RED OAK *      CLEAR     54  54 100 CALM      29.99R
SHENANDOAH *   CLEAR     54  54 100 SW5       30.01R
$$

IAZ047>049-059>061-072>074-084-271100-
   CENTRAL IOWA

CITY           SKY/WX    TMP DP  RH WIND       PRES   REMARKS
AMES           PTCLDY    57  55  93 W9        29.93R
ANKENY *       CLEAR     57  57 100 W6        29.94R
CHARITON *     CLOUDY    59  55  88 W8        29.97R
DES MOINES     MOCLDY    59  55  87 W3        29.94R
GRINNELL*      PTCLDY    57  55  94 W6        29.93R
KNOXVILLE *    CLOUDY    59  55  88 W8        29.93R
MARSHALLTOWN   CLOUDY    58  56  93 W7        29.91R
PELLA *        CLOUDY    59  59 100 W6        29.94R
PERRY *        CLOUDY    57  55  94 W8        29.95R
$$

IAZ004>006-015-016-023>025-035-036-271100-
   NORTH CENTRAL IOWA

CITY           SKY/WX    TMP DP  RH WIND       PRES   REMARKS
ALGONA *       CLEAR     55  55 100 W12       29.93R
CLARION *      CLEAR     55 N/A N/A W6        29.92R
ESTHERVILLE    PTCLDY    53  52  96 SW8       29.92R
FORT DODGE *   MOCLDY    54  50  87 W5        29.94R
MASON CITY     CLOUDY    55  54  96 W9        29.92R
FOREST CITY *    N/A     54  54 100 W3        29.91R
IOWA FALLS *   MOCLDY    57  55  94 W8        29.92R
$$

IAZ007>011-017>019-026>030-037>042-050>054-066-271100-
   NORTHEAST IOWA

CITY           SKY/WX    TMP DP  RH WIND       PRES   REMARKS
CEDAR RAPIDS   CLOUDY    60  60 100 W7        29.90R
CHARLES CITY * CLOUDY    57  57 100 W8        29.89R
CLINTON *      CLOUDY    61  57  88 W13       29.91R
DECORAH *      CLOUDY    57  57 100 CALM      29.87R
DUBUQUE        CLOUDY    60  59  96 W7        29.87R
MONTICELLO *   LGT RAIN  61  61 100 NW13      29.89R
OELWEIN *      CLOUDY    57  57 100 W7        29.90R
WATERLOO       CLOUDY    57  55  93 W6        29.90R
$$

IAZ064-065-067-068-078-271100-
   EAST CENTRAL IOWA

CITY           SKY/WX    TMP DP  RH WIND       PRES   REMARKS
DAVENPORT      CLOUDY    62  59  90 W13       29.91R
IOWA CITY      CLOUDY    61  60  97 SW5       29.93R
MT. PLEASANT * MOCLDY    59  59 100 SW6       29.94R
MUSCATINE *    MOCLDY    61  59  94 SW8       29.93R
QUAD CITIES    CLEAR     62  58  86 W8        29.90R
$$

IAZ062-063-075>077-085>089-095>099-271100-
   SOUTHEAST IOWA

CITY           SKY/WX    TMP DP  RH WIND       PRES   REMARKS
BURLINGTON     CLOUDY    62  61  96 SW5       29.94R
FAIRFIELD *    MOCLDY    59  57  94 SW6       29.95R
FORT MADISON * PTCLDY    63  61  94 SW7       29.96R
KEOKUK *       CLOUDY    63  61  94 W3        29.95R
OSKALOOSA *    CLOUDY    57  55  94 W7        29.94R
CENTERVILLE *  CLEAR     57  57 100 W6        29.98R
OTTUMWA        PTCLDY    57  56  96 SW7       29.94R
WASHINGTON *   MOCLDY    59  59 100 SW8       29.94R
$$

ABBREVIATIONS USED IN REMARKS
   TC - TEMPERATURES IN CELSIUS
  WCI - WIND CHILL INDEX
   HX - HEAT INDEX
  VSB - VISIBILITY
$$



USA.gov is the U.S. government's official web portal to all federal, state and local government web resources and services.